• In Czech Republic
  • List of Countries
  • For 7 days
  • Water Temperature
  • Satellite Maps
  • Weather Map
  • Weather Widgets
  • user-avatar
    Login

    Hourly Weather Anchorage

    Today, 21 October, Saturday

    Time Temperature Precipitation Wind Pressure Humidity
    00:00 -7°C° 0 mm 3 mps 742 mmHg 53%
    01:00 -7°C° 0 mm 3 mps 742 mmHg 54%
    02:00 -6°C° 0 mm 3 mps 742 mmHg 54%
    03:00 -6°C° 0 mm 3 mps 741 mmHg 54%
    04:00 -6°C° 0 mm 3 mps 741 mmHg 54%
    05:00 -6°C° 0 mm 3 mps 741 mmHg 54%
    06:00 -6°C° 0 mm 3 mps 741 mmHg 54%
    07:00 -6°C° 0 mm 3 mps 741 mmHg 54%
    08:00 -6°C° 0 mm 3 mps 741 mmHg 53%
    09:00 -6°C° 0 mm 3 mps 741 mmHg 52%
    10:00 -5°C° 0 mm 3 mps 740 mmHg 50%
    11:00 -3°C° 0 mm 2 mps 740 mmHg 48%
    12:00 -3°C° 0 mm 2 mps 740 mmHg 48%
    13:00 -2°C° 0 mm 3 mps 740 mmHg 48%
    14:00 -2°C° 0 mm 3 mps 739 mmHg 48%
    15:00 -4°C° 0 mm 3 mps 739 mmHg 50%
    16:00 -4°C° 0 mm 3 mps 739 mmHg 52%
    17:00 -4°C° 0 mm 2 mps 739 mmHg 54%
    18:00 -4°C° 0 mm 2 mps 740 mmHg 55%
    19:00 -4°C° 0 mm 2 mps 740 mmHg 56%
    20:00 -4°C° 0 mm 2 mps 740 mmHg 57%
    21:00 -4°C° 0 mm 2 mps 740 mmHg 57%
    22:00 -4°C° 0 mm 2 mps 740 mmHg 57%
    23:00 -4°C° 0 mm 2 mps 740 mmHg 56%

    Tomorrow, 22 October, Sunday

    Time Temperature Precipitation Wind Pressure Humidity
    00:00 -4°C° 0 mm 2 mps 740 mmHg 57%
    01:00 -4°C° 0 mm 2 mps 740 mmHg 57%
    02:00 -4°C° 0 mm 2 mps 741 mmHg 57%
    03:00 -4°C° 0.1 mm 2 mps 741 mmHg 59%
    04:00 -4°C° 0.1 mm 2 mps 741 mmHg 62%
    05:00 -4°C° 0.1 mm 2 mps 742 mmHg 64%
    06:00 -2°C° 0.1 mm 1 mps 742 mmHg 67%
    07:00 -2°C° 0.1 mm 1 mps 743 mmHg 70%
    08:00 -2°C° 0.1 mm 1 mps 743 mmHg 74%
    09:00 -2°C° 0.1 mm 1 mps 744 mmHg 74%
    10:00 -2°C° 0.1 mm 1 mps 744 mmHg 74%
    11:00 -1°C° 0.1 mm 1 mps 745 mmHg 74%
    12:00 -1°C° 0 mm 1 mps 746 mmHg 73%
    13:00 0°C° 0 mm 1 mps 746 mmHg 73%
    14:00 0°C° 0 mm 1 mps 747 mmHg 73%
    15:00 -1°C° 0 mm 1 mps 748 mmHg 76%
    16:00 -1°C° 0 mm 1 mps 749 mmHg 78%
    17:00 -2°C° 0 mm 1 mps 750 mmHg 81%
    18:00 -2°C° 0 mm 1 mps 750 mmHg 80%
    19:00 -4°C° 0 mm 2 mps 751 mmHg 78%
    20:00 -5°C° 0 mm 2 mps 752 mmHg 76%
    21:00 -5°C° 0 mm 2 mps 753 mmHg 74%
    22:00 -5°C° 0 mm 2 mps 754 mmHg 71%
    23:00 -5°C° 0 mm 2 mps 754 mmHg 68%

    Day after tomorrow, 23 October, Monday

    Time Temperature Precipitation Wind Pressure Humidity
    00:00 -6°C° 0 mm 3 mps 755 mmHg 67%
    01:00 -6°C° 0 mm 3 mps 755 mmHg 66%
    02:00 -7°C° 0 mm 4 mps 755 mmHg 65%
    03:00 -5°C° 0 mm 4 mps 755 mmHg 64%
    04:00 -5°C° 0 mm 4 mps 755 mmHg 63%
    05:00 -5°C° 0 mm 4 mps 755 mmHg 62%
    06:00 -5°C° 0 mm 4 mps 755 mmHg 63%
    07:00 -5°C° 0 mm 4 mps 755 mmHg 63%
    08:00 -5°C° 0 mm 4 mps 755 mmHg 63%
    09:00 -4°C° 0 mm 4 mps 755 mmHg 62%
    10:00 -2°C° 0 mm 3 mps 755 mmHg 62%
    11:00 -2°C° 0 mm 3 mps 755 mmHg 61%
    12:00 -2°C° 0 mm 3 mps 754 mmHg 61%
    13:00 -1°C° 0 mm 3 mps 754 mmHg 61%
    14:00 -1°C° 0 mm 3 mps 753 mmHg 62%
    15:00 -2°C° 0 mm 3 mps 753 mmHg 64%
    16:00 -4°C° 0 mm 3 mps 752 mmHg 67%
    17:00 -4°C° 0 mm 3 mps 751 mmHg 70%
    18:00 -3°C° 0 mm 2 mps 751 mmHg 71%
    19:00 -3°C° 0 mm 2 mps 751 mmHg 72%
    20:00 -3°C° 0 mm 2 mps 751 mmHg 73%
    21:00 -2°C° 0.1 mm 1 mps 751 mmHg 76%
    22:00 -2°C° 0.1 mm 1 mps 751 mmHg 79%
    23:00 -2°C° 0.1 mm 1 mps 751 mmHg 82%

    24 October, Tuesday

    Time Temperature Precipitation Wind Pressure Humidity
    00:00 -2°C° 0.5 mm 1 mps 752 mmHg 84%
    01:00 -2°C° 0.5 mm 1 mps 752 mmHg 87%
    02:00 -3°C° 0.5 mm 2 mps 753 mmHg 89%
    03:00 -3°C° 0.4 mm 2 mps 753 mmHg 89%
    04:00 -3°C° 0.4 mm 2 mps 754 mmHg 88%
    05:00 -3°C° 0.4 mm 2 mps 754 mmHg 87%
    06:00 -3°C° 0.1 mm 2 mps 755 mmHg 86%
    07:00 -3°C° 0.1 mm 2 mps 756 mmHg 84%
    08:00 -4°C° 0.1 mm 3 mps 757 mmHg 82%
    09:00 -4°C° 0 mm 3 mps 758 mmHg 78%
    10:00 -2°C° 0 mm 3 mps 759 mmHg 73%
    11:00 -1°C° 0 mm 3 mps 760 mmHg 68%
    12:00 -1°C° 0 mm 2 mps 760 mmHg 68%
    13:00 -1°C° 0 mm 2 mps 761 mmHg 67%
    14:00 -1°C° 0 mm 2 mps 762 mmHg 66%
    15:00 -2°C° 0 mm 2 mps 762 mmHg 68%
    16:00 -3°C° 0 mm 2 mps 763 mmHg 70%
    17:00 -4°C° 0 mm 3 mps 763 mmHg 72%
    18:00 -4°C° 0 mm 3 mps 764 mmHg 69%
    19:00 -4°C° 0 mm 3 mps 764 mmHg 66%
    20:00 -4°C° 0 mm 3 mps 765 mmHg 63%
    21:00 -4°C° 0 mm 3 mps 765 mmHg 62%
    22:00 -4°C° 0 mm 3 mps 765 mmHg 62%
    23:00 -4°C° 0 mm 3 mps 765 mmHg 61%

    25 October, Wednesday

    Time Temperature Precipitation Wind Pressure Humidity
    00:00 -3°C° 0.1 mm 4 mps 765 mmHg 63%
    01:00 -3°C° 0.1 mm 4 mps 765 mmHg 65%
    02:00 -4°C° 0.1 mm 5 mps 764 mmHg 67%
    03:00 -4°C° 0.1 mm 5 mps 764 mmHg 70%
    04:00 -4°C° 0.1 mm 5 mps 763 mmHg 73%
    05:00 -3°C° 0.1 mm 4 mps 763 mmHg 76%
    06:00 -4°C° 0.2 mm 5 mps 762 mmHg 77%
    07:00 -2°C° 0.2 mm 5 mps 762 mmHg 78%
    08:00 -2°C° 0.2 mm 5 mps 762 mmHg 79%
    09:00 -1°C° 0.5 mm 5 mps 761 mmHg 79%
    10:00 -1°C° 0.5 mm 5 mps 761 mmHg 79%
    11:00 -1°C° 0.5 mm 6 mps 760 mmHg 80%
    12:00 0°C° 0.6 mm 5 mps 759 mmHg 81%
    13:00 0°C° 0.6 mm 5 mps 758 mmHg 82%
    14:00 +1°C° 0.6 mm 5 mps 758 mmHg 84%
    15:00 +1°C° 1.5 mm 5 mps 757 mmHg 85%
    16:00 +1°C° 1.5 mm 6 mps 756 mmHg 86%
    17:00 +1°C° 1.5 mm 6 mps 755 mmHg 87%
    18:00 +1°C° 1.7 mm 6 mps 755 mmHg 87%
    19:00 0°C° 1.7 mm 7 mps 755 mmHg 86%
    20:00 0°C° 1.7 mm 7 mps 754 mmHg 86%
    21:00 +1°C° 0.6 mm 6 mps 754 mmHg 86%
    22:00 +1°C° 0.6 mm 6 mps 753 mmHg 86%
    23:00 +1°C° 0.6 mm 5 mps 753 mmHg 86%

    26 October, Thursday

    Time Temperature Precipitation Wind Pressure Humidity
    00:00 +1°C° 0.5 mm 4 mps 753 mmHg 87%
    01:00 +1°C° 0.5 mm 4 mps 753 mmHg 88%
    02:00 +2°C° 0.5 mm 3 mps 753 mmHg 88%
    03:00 +2°C° 0.3 mm 3 mps 752 mmHg 89%
    04:00 +2°C° 0.3 mm 3 mps 752 mmHg 89%
    05:00 +2°C° 0.3 mm 3 mps 752 mmHg 89%
    06:00 +3°C° 0.1 mm 2 mps 752 mmHg 89%
    07:00 +4°C° 0.1 mm 2 mps 752 mmHg 90%
    08:00 +4°C° 0.1 mm 2 mps 752 mmHg 90%
    09:00 +4°C° 0.3 mm 2 mps 752 mmHg 91%
    10:00 +4°C° 0.3 mm 2 mps 752 mmHg 92%
    11:00 +4°C° 0.3 mm 2 mps 752 mmHg 93%
    12:00 +4°C° 0.9 mm 2 mps 752 mmHg 93%
    13:00 +5°C° 0.9 mm 1 mps 751 mmHg 94%
    14:00 +5°C° 0.9 mm 1 mps 751 mmHg 94%
    15:00 +5°C° 1.2 mm 1 mps 750 mmHg 94%
    16:00 +5°C° 1.2 mm 1 mps 750 mmHg 94%
    17:00 +5°C° 1.2 mm 1 mps 749 mmHg 94%
    18:00 +5°C° 1 mm 1 mps 749 mmHg 94%
    19:00 +5°C° 1 mm 1 mps 749 mmHg 94%
    20:00 +5°C° 1 mm 1 mps 749 mmHg 94%
    21:00 +4°C° 0.8 mm 2 mps 749 mmHg 95%
    22:00 +4°C° 0.8 mm 2 mps 750 mmHg 95%
    23:00 +5°C° 0.8 mm 2 mps 750 mmHg 95%
    Show more